[[{"header":{"parameterUnit":"m.s-1","parameterCategory":1,"la1":30.2991,"la2":30.254,"lo1":-89.0895,"lo2":-89.0444,"dy":0.0017,"dx":0.0017,"nx":28,"ny":28,"refTime":"2024-03-26T21:00:00:Z","depth":0,"parameterNumber":2,"parameterNumberName":"U-component_of_WINDS"},"data":[0,0,0,0,0,0,0,0,0,0,0,0,0,0,0,0,0,0,0,0,0,0,0,0,0,0,0,0,0,0,0,0,0,0,0,0,0,0,0,0,0,0,0,0,0,0,0,0,0,0,0,0,0,0,0,0,0,0,-1.1391,-1.1393,0,-1.1581,-1.1583,-1.1585,-1.1637,-1.1636,-1.1635,-1.1634,-1.1833,-1.1839,-1.1845,0,0,0,0,0,0,0,0,0,0,0,0,0,-1.1077,-1.1082,-1.139,-1.1393,-1.1395,-1.158,-1.1583,-1.1585,-1.1637,-1.1636,-1.1634,-1.1633,-1.1831,-1.1838,-1.1846,0,0,0,0,0,0,0,0,0,0,0,0,0,-1.1235,-1.1084,-1.139,-1.1443,-1.145,-1.158,-1.1583,-1.1586,-1.1637,-1.1636,-1.1634,-1.1633,-1.1828,-1.1838,-1.1847,-1.1939,0,0,-1.1876,-1.188,0,0,0,0,0,0,0,0,-1.1226,-1.1246,-1.1433,-1.144,-1.1447,-1.1583,-1.1545,-1.1705,-1.1638,-1.1566,-1.1634,-1.1632,-1.1752,-1.1767,-1.1807,-1.1948,-1.1957,-1.1877,-1.1883,-1.1887,-1.189,0,0,0,0,0,0,0,-1.1215,-1.1238,-1.1466,-1.1436,-1.1445,-1.1459,-1.148,-1.1576,-1.1666,-1.1572,-1.1577,-1.1598,-1.1755,-1.1797,-1.1812,-1.196,-1.1877,-1.1885,-1.1891,-1.1895,-1.2188,-1.219,0,0,0,0,0,0,-1.1194,-1.1229,-1.146,-1.1472,-1.133,-1.1466,-1.1489,-1.1541,-1.1665,-1.1682,-1.1599,-1.16,-1.1782,-1.1801,-1.1819,-1.1936,-1.1887,-1.1896,-1.1901,-1.2186,-1.2188,-1.2191,0,0,0,0,0,0,-1.1187,-1.1214,-1.1452,-1.1351,-1.1383,-1.1473,-1.1532,-1.1546,-1.1588,-1.1686,-1.1702,-1.1626,-1.1781,-1.1806,-1.1909,-1.1944,-1.19,-1.1909,-1.2183,-1.2187,-1.2189,-1.217,0,0,0,0,0,0,-1.1178,-1.1211,-1.1246,-1.1352,-1.1388,-1.1537,-1.1534,-1.1551,-1.1604,-1.1606,-1.1715,-1.1731,-1.1782,-1.1894,-1.1918,-1.1956,-1.1916,-1.2181,-1.2185,-1.2188,-1.2168,-1.2172,-1.2175,0,0,0,0,0,-1.1166,-1.1234,-1.1248,-1.1275,-1.1433,-1.1539,-1.156,-1.1616,-1.1606,-1.1643,-1.1706,-1.1728,-1.1935,-1.1904,-1.1932,-1.1973,-1.2179,-1.2184,-1.2188,-1.2166,-1.2171,-1.2175,0,0,0,0,0,0,-1.1132,-1.1249,-1.1265,-1.1369,-1.1443,-1.1548,-1.1596,-1.1619,-1.17,-1.1699,-1.1766,-1.179,-1.1889,-1.1941,-1.1905,-1.2069,-1.2058,-1.2068,-1.2032,-1.2037,-1.2041,-1.2027,-1.1924,0,0,0,0,0,-1.1136,-1.1211,-1.1309,-1.1391,-1.1428,-1.1505,-1.1553,-1.159,-1.1671,-1.1703,-1.1773,-1.1852,-1.1935,-1.1989,-1.2071,-1.2175,-1.22,-1.2217,-1.222,-1.2223,-1.2232,-1.2292,-1.2301,-1.2206,-1.2206,-1.2206,0,0,-1.1146,-1.1219,-1.1263,-1.1386,-1.1448,-1.1526,-1.1531,-1.1613,-1.1672,-1.1716,-1.1818,-1.1871,-1.1964,-1.2068,-1.2118,-1.2115,-1.2263,-1.2229,-1.223,-1.2238,-1.2298,-1.2307,-1.2315,-1.2209,-1.2208,-1.2208,0,0,-1.1204,-1.1266,-1.1341,-1.1403,-1.1497,-1.1548,-1.1565,-1.1666,-1.1703,-1.1806,-1.1841,-1.1912,-1.2054,-1.2118,-1.217,-1.2251,-1.2275,-1.2276,-1.2297,-1.2355,-1.2362,-1.2369,-1.24,-1.241,-1.2284,-1.2284,-1.2284,0,-1.1205,-1.1322,-1.1378,-1.1458,-1.1512,-1.1553,-1.1631,-1.1689,-1.1805,-1.1842,-1.1836,-1.2014,-1.208,-1.22,-1.222,-1.226,-1.2284,-1.2265,-1.2356,-1.2364,-1.2371,-1.2402,-1.2413,-1.2284,-1.2284,-1.2284,-1.2284,0,-1.132,-1.14,-1.145,-1.1559,-1.1619,-1.1697,-1.1766,-1.182,-1.1851,-1.1902,-1.2007,-1.2086,-1.2185,-1.2216,-1.2247,-1.2341,-1.2337,-1.2343,-1.2333,-1.2379,-1.2409,-1.2421,-1.2283,-1.2283,-1.2283,-1.2284,0,0,-1.1363,-1.1501,-1.1519,-1.1569,-1.1675,-1.1739,-1.182,-1.1915,-1.1961,-1.2039,-1.2109,-1.2228,-1.2234,-1.2292,-1.2331,-1.2381,-1.2443,-1.2382,-1.2385,-1.2392,-1.2553,-1.2549,-1.2561,-1.2458,-1.246,-1.2462,-1.2546,0,-1.1436,-1.158,-1.1632,-1.1752,-1.1828,-1.1868,-1.1938,-1.2011,-1.2062,-1.2134,-1.2191,-1.2274,-1.2275,-1.231,-1.2362,-1.2424,-1.2476,-1.2419,-1.2527,-1.253,-1.2504,-1.2577,-1.2573,-1.2648,-1.2557,-1.2559,-1.2561,0,-1.1541,-1.1619,-1.1745,-1.1842,-1.1876,-1.1938,-1.203,-1.2098,-1.2182,-1.2215,-1.228,-1.2315,-1.2402,-1.2385,-1.2508,-1.2467,-1.2514,-1.2551,-1.2556,-1.257,-1.2549,-1.2594,-1.2673,-1.2685,-1.2579,-1.2578,-1.2576,0,-1.1562,-1.1699,-1.1792,-1.1834,-1.1948,-1.1991,-1.2041,-1.2124,-1.2178,-1.2258,-1.2294,-1.2384,-1.2433,-1.2503,-1.2562,-1.2544,-1.2679,-1.2667,-1.2711,-1.271,-1.274,-1.2737,-1.2829,-1.2766,-1.2766,-1.2766,-1.2765,0,-1.1639,-1.1715,-1.1803,-1.1861,-1.1948,-1.2007,-1.2092,-1.2145,-1.2218,-1.2288,-1.2327,-1.2392,-1.2465,-1.254,-1.2587,-1.2682,-1.2704,-1.2734,-1.2746,-1.2732,-1.2728,-1.2765,-1.2763,-1.2769,-1.2768,-1.2768,-1.2767,0,-1.1678,-1.174,-1.1845,-1.1944,-1.1971,-1.203,-1.2116,-1.2175,-1.2226,-1.2314,-1.2338,-1.2419,-1.2509,-1.2574,-1.2691,-1.2722,-1.2825,-1.2836,-1.2796,-1.2803,-1.2843,-1.2839,-1.2964,-1.2984,-1.2905,-1.2906,-1.2906,0,-1.1724,-1.1783,-1.1888,-1.1937,-1.1987,-1.2065,-1.212,-1.2181,-1.2236,-1.2336,-1.2383,-1.2475,-1.2553,-1.2695,-1.2766,-1.2855,-1.287,-1.2907,-1.2884,-1.2868,-1.2873,-1.2869,-1.2876,-1.2911,-1.2912,-1.2912,-1.2912,0,-1.18,-1.1827,-1.1904,-1.1992,-1.2056,-1.2128,-1.2201,-1.2239,-1.2313,-1.2374,-1.2466,-1.2525,-1.2644,-1.2736,-1.2832,-1.2885,-1.2912,-1.2919,-1.2934,-1.2921,-1.2897,-1.2912,-1.2807,-1.2916,-1.2916,-1.2916,-1.2915,-1.2915,-1.1845,-1.19,-1.1983,-1.2067,-1.2128,-1.2195,-1.2255,-1.2313,-1.239,-1.2491,-1.2522,-1.2617,-1.2701,-1.2832,-1.2886,-1.2963,-1.2962,-1.2983,-1.2989,-1.2994,-1.2994,-1.2882,-1.298,-1.298,-1.298,-1.298,-1.298,0,-1.1925,-1.1979,-1.2056,-1.2156,-1.2223,-1.224,-1.2322,-1.2377,-1.246,-1.2534,-1.2609,-1.2715,-1.2804,-1.2881,-1.2974,-1.302,-1.3035,-1.3043,-1.3041,-1.3053,-1.2989,-1.2968,-1.3029,-1.3029,-1.3029,-1.3029,-1.3029,-1.3029,-1.1974,-1.2068,-1.2105,-1.223,-1.2285,-1.2378,-1.2423,-1.2486,-1.2546,-1.2662,-1.2736,-1.2784,-1.286,-1.2959,-1.3042,-1.3062,-1.3095,-1.31,-1.3124,-1.3063,-1.3058,-1.3052,-1.3032,-1.3107,-1.3107,-1.3182,-1.3183,-1.3183]},{"header":{"parameterUnit":"m.s-1","parameterCategory":1,"la1":30.2991,"la2":30.254,"lo1":-89.0895,"lo2":-89.0444,"dy":0.0017,"dx":0.0017,"nx":28,"ny":28,"refTime":"2024-03-26T21:00:00:Z","depth":0,"parameterNumber":3,"parameterNumberName":"V-component_of_WINDS"},"data":[0,0,0,0,0,0,0,0,0,0,0,0,0,0,0,0,0,0,0,0,0,0,0,0,0,0,0,0,0,0,0,0,0,0,0,0,0,0,0,0,0,0,0,0,0,0,0,0,0,0,0,0,0,0,0,0,0,0,-7.2578,-7.2579,0,-7.2714,-7.2715,-7.2717,-7.2646,-7.2642,-7.2639,-7.2635,-7.277,-7.2777,-7.2784,0,0,0,0,0,0,0,0,0,0,0,0,0,-7.2255,-7.2261,-7.2578,-7.2579,-7.2581,-7.2713,-7.2715,-7.2717,-7.2647,-7.2642,-7.2638,-7.2634,-7.2768,-7.2776,-7.2785,0,0,0,0,0,0,0,0,0,0,0,0,0,-7.2393,-7.2263,-7.2577,-7.2562,-7.2562,-7.2713,-7.2715,-7.2717,-7.2648,-7.2642,-7.2637,-7.2632,-7.2765,-7.2776,-7.2786,-7.2958,0,0,-7.2818,-7.2822,0,0,0,0,0,0,0,0,-7.2385,-7.2405,-7.2563,-7.2563,-7.2564,-7.2657,-7.2651,-7.2798,-7.2649,-7.2615,-7.2635,-7.2629,-7.2737,-7.2749,-7.2787,-7.2965,-7.297,-7.2819,-7.2825,-7.2829,-7.2832,0,0,0,0,0,0,0,-7.2376,-7.2399,-7.2631,-7.2565,-7.2566,-7.2547,-7.2561,-7.2678,-7.2704,-7.2618,-7.2613,-7.263,-7.2736,-7.2777,-7.2789,-7.2972,-7.2818,-7.2828,-7.2834,-7.2838,-7.3301,-7.3307,0,0,0,0,0,0,-7.2367,-7.2391,-7.2627,-7.2635,-7.2459,-7.2558,-7.2573,-7.2633,-7.2703,-7.2709,-7.2634,-7.2626,-7.2761,-7.2777,-7.2794,-7.3002,-7.2829,-7.2839,-7.2845,-7.3295,-7.3302,-7.3309,0,0,0,0,0,0,-7.2361,-7.2389,-7.2621,-7.2512,-7.254,-7.2569,-7.2637,-7.2638,-7.2679,-7.2716,-7.272,-7.2671,-7.2758,-7.2779,-7.2919,-7.3006,-7.2844,-7.2853,-7.3288,-7.3297,-7.3305,-7.3419,0,0,0,0,0,0,-7.2352,-7.2387,-7.2454,-7.2514,-7.2546,-7.2746,-7.2642,-7.2645,-7.2697,-7.2688,-7.2752,-7.2757,-7.2755,-7.2904,-7.2929,-7.3017,-7.2861,-7.328,-7.3292,-7.3303,-7.3408,-7.3431,-7.3451,0,0,0,0,0,-7.2341,-7.2479,-7.2457,-7.2486,-7.263,-7.2751,-7.2769,-7.2765,-7.2705,-7.2772,-7.2796,-7.2755,-7.2992,-7.2918,-7.2947,-7.3039,-7.3275,-7.3289,-7.3302,-7.3398,-7.3427,-7.3451,0,0,0,0,0,0,-7.2426,-7.2486,-7.2463,-7.2626,-7.2684,-7.2739,-7.2823,-7.2795,-7.2871,-7.2858,-7.2849,-7.2864,-7.301,-7.3038,-7.2955,-7.3211,-7.3124,-7.3144,-7.3187,-7.3215,-7.3236,-7.3227,-7.287,0,0,0,0,0,-7.2464,-7.2558,-7.2605,-7.2743,-7.2774,-7.2794,-7.2846,-7.2839,-7.2898,-7.2921,-7.2955,-7.3014,-7.3101,-7.3159,-7.3242,-7.3411,-7.3425,-7.3489,-7.351,-7.3528,-7.3546,-7.3639,-7.3669,-7.3353,-7.3353,-7.3353,0,0,-7.2543,-7.2587,-7.2647,-7.2762,-7.2806,-7.2903,-7.2815,-7.292,-7.2992,-7.2937,-7.3072,-7.3099,-7.3163,-7.332,-7.339,-7.3347,-7.3636,-7.3545,-7.3559,-7.3567,-7.3656,-7.3686,-7.3713,-7.3363,-7.3361,-7.3359,0,0,-7.2736,-7.2779,-7.2901,-7.2948,-7.3016,-7.3029,-7.3058,-7.3118,-7.3134,-7.327,-7.3231,-7.3316,-7.3466,-7.3515,-7.3559,-7.3773,-7.3739,-7.38,-7.3913,-7.4005,-7.4029,-7.4051,-7.413,-7.4158,-7.3817,-7.3817,-7.3818,0,-7.2825,-7.2971,-7.2966,-7.3076,-7.3128,-7.3085,-7.3208,-7.3252,-7.3344,-7.3381,-7.3332,-7.3522,-7.3562,-7.373,-7.3783,-7.3819,-7.3853,-7.3793,-7.4026,-7.4048,-7.4069,-7.4144,-7.4173,-7.3825,-7.3824,-7.3823,-7.3822,0,-7.3078,-7.318,-7.3269,-7.3362,-7.3424,-7.354,-7.3552,-7.3615,-7.3602,-7.362,-7.3759,-7.3806,-7.3898,-7.3937,-7.3924,-7.4104,-7.4076,-7.4027,-7.394,-7.4106,-7.4176,-7.4205,-7.3835,-7.3832,-7.383,-7.3828,0,0,-7.3329,-7.3419,-7.3452,-7.3495,-7.3568,-7.3646,-7.376,-7.3852,-7.3907,-7.3972,-7.4068,-7.4197,-7.4154,-7.4204,-7.4196,-7.4277,-7.4446,-7.4218,-7.422,-7.4261,-7.4649,-7.4686,-7.472,-7.4423,-7.4429,-7.4433,-7.4644,0,-7.3529,-7.3731,-7.373,-7.3916,-7.4011,-7.3971,-7.4071,-7.4126,-7.4146,-7.4228,-7.4249,-7.4342,-7.4276,-7.4307,-7.4384,-7.4409,-7.4524,-7.4394,-7.4513,-7.4517,-7.45,-7.4756,-7.4795,-7.4992,-7.4671,-7.4676,-7.4679,0,-7.379,-7.3866,-7.4062,-7.4125,-7.4164,-7.4254,-7.4339,-7.4418,-7.4481,-7.4489,-7.4547,-7.4528,-7.4644,-7.4552,-7.4712,-7.4624,-7.4672,-7.4692,-7.4699,-7.4712,-7.461,-7.4777,-7.5055,-7.5085,-7.4722,-7.4718,-7.4715,0,-7.3956,-7.4107,-7.4245,-7.4282,-7.4357,-7.4421,-7.4455,-7.4513,-7.4569,-7.4643,-7.4679,-7.4765,-7.4813,-7.488,-7.4884,-7.4817,-7.5046,-7.4955,-7.5057,-7.5058,-7.5108,-7.5105,-7.54,-7.5137,-7.5136,-7.5136,-7.5135,0,-7.4181,-7.4302,-7.4321,-7.4406,-7.4541,-7.4539,-7.4673,-7.4701,-7.4753,-7.4842,-7.4812,-7.4896,-7.4896,-7.4982,-7.4986,-7.5119,-7.514,-7.5151,-7.5151,-7.5155,-7.5154,-7.5187,-7.5175,-7.5144,-7.5142,-7.514,-7.5139,0,-7.4389,-7.4406,-7.4554,-7.4614,-7.4632,-7.473,-7.4781,-7.4861,-7.4878,-7.4992,-7.5018,-7.5045,-7.5145,-7.5156,-7.5271,-7.5274,-7.5435,-7.5419,-7.5415,-7.5413,-7.5516,-7.5507,-7.5844,-7.5889,-7.5595,-7.5598,-7.56,0,-7.4532,-7.4626,-7.4697,-7.4756,-7.4794,-7.4888,-7.4946,-7.4948,-7.5009,-7.5089,-7.516,-7.5257,-7.5335,-7.5496,-7.5526,-7.5614,-7.5601,-7.5713,-7.5614,-7.5616,-7.5606,-7.5601,-7.5611,-7.5733,-7.5736,-7.5739,-7.5741,0,-7.4785,-7.479,-7.4875,-7.4966,-7.5036,-7.5106,-7.5172,-7.5221,-7.5231,-7.5301,-7.5404,-7.5465,-7.5584,-7.5681,-7.5769,-7.5803,-7.5775,-7.5772,-7.5801,-7.5807,-7.5802,-7.5808,-7.547,-7.5764,-7.5762,-7.576,-7.5759,-7.5758,-7.4967,-7.5049,-7.5113,-7.521,-7.526,-7.5323,-7.5403,-7.5431,-7.5517,-7.5616,-7.5611,-7.5725,-7.5786,-7.5901,-7.5942,-7.6031,-7.5993,-7.6034,-7.6045,-7.6056,-7.6068,-7.5786,-7.6046,-7.6045,-7.6045,-7.6044,-7.6044,0,-7.522,-7.526,-7.5349,-7.5444,-7.5521,-7.5488,-7.556,-7.5626,-7.5727,-7.5787,-7.5866,-7.5985,-7.6079,-7.6117,-7.6209,-7.6274,-7.6263,-7.6298,-7.6294,-7.6303,-7.6094,-7.6061,-7.6305,-7.6305,-7.6305,-7.6305,-7.6305,-7.6305,-7.5361,-7.55,-7.5512,-7.5675,-7.5713,-7.5826,-7.587,-7.5928,-7.5977,-7.6112,-7.6191,-7.6216,-7.6267,-7.6364,-7.6449,-7.6458,-7.6494,-7.6536,-7.6539,-7.6343,-7.6317,-7.6292,-7.6261,-7.6543,-7.6543,-7.674,-7.6742,-7.6743]}]]